Regional Weather Roundup
Issued by NWS

Home | Current Version | Previous Version | Graphics & Text | Print | Product List | Glossary On
Versions: 1 2 3 4 5 6 7 8 9 10 11 12 13 14 15 16 17 18 19 20 21 22 23 24 25 26 27 28 29 30 31 32 33 34 35 36 37 38 39 40 41 42 43 44 45 46 47 48 49 50
677
ASUS43 KLOT 061803
RWRIL

ILLINOIS REGIONAL WEATHER ROUNDUP
NATIONAL WEATHER SERVICE CHICAGO/ROMEOVILLE IL
1200 PM CST TUE DEC 06 2016

NOTE: "FAIR" INDICATES FEW OR NO CLOUDS BELOW 12,000 FEET WITH NO
SIGNIFICANT WEATHER AND/OR OBSTRUCTIONS TO VISIBILITY.

* THESE STATIONS ARE NOT UNDER NWS QUALITY CONTROL. THEY ALSO MAY NOT
  REPORT WEATHER SUCH AS PRECIPITATION OR FOG.

ILZ001-002-007-009-015-016-024-061900-
NORTHWEST ILLINOIS

CITY           SKY/WX    TMP DP  RH WIND       PRES   REMARKS
MOLINE         PTSUNNY   37  28  70 W15G21    29.85S WCI  28
6HR MIN TEMP:  34; 6HR MAX TEMP:  37;

STERLING*      MIX PCPN  33  33 100 W12       29.82S VSB 3/4 WCI  24
$$

ILZ003-004-008-010-011-017-018-061900-
NORTH CENTRAL ILLINOIS

CITY           SKY/WX    TMP DP  RH WIND       PRES   REMARKS
ROCKFORD       CLOUDY    35  31  85 W12       29.80S WCI  27
6HR MIN TEMP:  33; 6HR MAX TEMP:  35; 6HR PCP: TRACE;

FREEPORT*      LGT RAIN  32  32 100 W10G16    29.81R VSB 1/2 WCI  24
ROCHELLE*      CLOUDY    33  32  96 W10       29.80S FOG     WCI  25
$$

ILZ005-006-012>014-019>023-061900-
NORTHEAST ILLINOIS

CITY           SKY/WX    TMP DP  RH WIND       PRES   REMARKS
CHICAGO-OHARE  PTSUNNY   40  33  76 W7        29.74S
6HR MIN TEMP:  30; 6HR MAX TEMP:  41;

CHICAGO-MIDWAY MOSUNNY   40  33  76 NW5       29.74F FOG
6HR MIN TEMP:  32; 6HR MAX TEMP:  40;

AURORA         CLOUDY   N/A N/A N/A W15       29.78S FOG
6HR MIN TEMP:  22; 6HR MAX TEMP:  34;

LANSING*       SUNNY     37  32  84 CALM      29.74F
WAUKEGAN       PTSUNNY   40  35  83 CALM      29.72F
6HR MIN TEMP:  33; 6HR MAX TEMP:  41;

DUPAGE AIRPORT CLOUDY    33  33 100 W10       29.76R FOG     WCI  25
6HR MIN TEMP:  29; 6HR MAX TEMP:  35;

WHEELING       PTSUNNY   40  32  73 NW3       29.74F
6HR MIN TEMP:  27; 6HR MAX TEMP:  41;

NORTHERLY ISL    N/A     41  33  73 SW3         N/A
$$

LMZ740>746-061900-
SOUTHERN LAKE MICHIGAN

STATION/POSITION SKY/WX   TEMP    WIND        PRES    VSBY  WAVE
                          AIR SEA DIR/SP/G                  HT/PER
                          (F)     (DEG/KT/KT) (MB)    (MI)  (FT/S)
HARRISON CRIB              41     170/  4/  5   N/A
BURNHAM HARBOR             42     190/  4/  5   N/A
CALUMET HARBOR             40     170/  2/  3 1006.6
BURNS HARBOR               39     240/  5/  6 1007.8F
MICHIGAN CITY              36     200/  5/  7   N/A
$$

ILZ025>027-034>036-040-047-049-050-058-095>099-061900-
WEST-CENTRAL ILLINOIS

CITY           SKY/WX    TMP DP  RH WIND       PRES   REMARKS
QUINCY         PTSUNNY   38  30  73 NW15      29.91S WCI  29
GALESBURG*     CLOUDY    35  32  90 W14       29.86F WCI  25
MACOMB*        CLOUDY    37  33  87 NW17      29.90S WCI  27
$$

ILZ028>032-037-038-041>044-048-051>054-059>061-061900-
CENTRAL ILLINOIS

CITY           SKY/WX    TMP DP  RH WIND       PRES   REMARKS
BLOOMINGTON    CLOUDY    36  34  92 NW16      29.82S FOG     WCI  26
DECATUR        CLOUDY    36  32  85 NW14G28   29.84R WCI  27
PEORIA         CLOUDY    37  36  96 W12       29.85S FOG     WCI  29
6HR MIN TEMP:  32; 6HR MAX TEMP:  37;

SPRINGFIELD    CLOUDY    40  36  86 W10       29.88R FOG
6HR MIN TEMP:  35; 6HR MAX TEMP:  40;

TAYLORVILLE    NOT AVBL
$$

ILZ033-039-045-046-055>057-062-063-061900-
EAST-CENTRAL ILLINOIS

CITY           SKY/WX    TMP DP  RH WIND       PRES   REMARKS
CHAMPAIGN      CLOUDY    37  33  85 NW18      29.81R FOG     WCI  27
MATTOON        CLOUDY    40  34  79 NW16      29.80S
PARIS*         CLOUDY    39  37  89 NW15      29.79S WCI  31
$$

ILZ079-100>102-061900-
SOUTHWEST ILLINOIS

CITY           SKY/WX    TMP DP  RH WIND       PRES   REMARKS
ALTON          CLOUDY    39  34  81 NW17      29.91R WCI  30
BELLEVILLE     CLOUDY    42  37  82 NW20G26   29.89R
CAHOKIA*       CLOUDY    41  34  76 NW15      29.92R
SPARTA*        CLOUDY    40  35  82 NW13G20   29.90R
$$

ILZ064>066-069>071-074>076-080>082-084>086-088>090-092>094-061900-
SOUTH-CENTRAL ILLINOIS

CITY           SKY/WX    TMP DP  RH WIND       PRES   REMARKS
CARBONDALE     CLOUDY    40  36  86 NW15G22   29.88R
6HR MIN TEMP:  39; 6HR MAX TEMP:  41;

CAIRO*         CLOUDY    44  39  84 NW12      29.87R
MARION         CLOUDY    41  39  93 NW12      29.88R
SALEM*         CLOUDY    39  35  83 NW14      29.86S WCI  31
$$

ILZ067-068-072-073-078-083-087-091-061900-
SOUTHEAST ILLINOIS

CITY           SKY/WX    TMP DP  RH WIND       PRES   REMARKS
LAWRENCEVILLE  CLOUDY    43  39  86 NW17      29.80S
HARRISBURG*    CLOUDY    42  39  90 NW14      29.85R
ROBINSON*      CLOUDY    41  38  89 NW13      29.80S FOG
CARMI*         CLOUDY    43  40  91 NW17G24   29.82R
$$

ABBREVIATIONS USED IN REMARKS
   TC - TEMPERATURE IN CELSIUS
  WCI - WIND CHILL INDEX
   HX - HEAT INDEX
  VSB - VISIBILITY
$$





USA.gov is the U.S. government's official web portal to all federal, state and local government web resources and services.